Showing default

TYVAK-0173, 48892

Orbit data source: Space-Track

TYVAK-0173, 48892 is a payload satellite owned by Echostar AU (AU) in SSO that was launched on Wed, 30 Jun 2021 UTC via an FALCON 9 launch vehicle from the Air Force Eastern Test Range (AFETR). Payload-class satellites include a variety of spacecraft equipped with specific instruments for various scientific and technological missions. These include communications satellites like Starlink; space stations such as the ISS; scientific satellites like the Hubble; Earth observation satellites from companies like Planet Labs, Umbra, and HawkEye 360; GPS; miniature CubeSats for education and research; and military/defense satellites.

Loading next visibility...
Identifier
48892, 2021-059P
Orbit
SSO
Country
Flag of AUAU / AUS
Related business
Manufacturer
Tyvak NSS
Mission
Operational Commercial Technology
Bus & Motor
CUBESAT 12U, Unknown motor
Mass
11 kg wet, 11 kg dry
Launch date (UTC)
2021-06-30 (5 years ago)
Launch vehicle
FALCON 9
Launch site
Air Force Eastern Test Range (AFETR)
Object type
Payload
Rocket body
Debris
Shape & HBR
Box + 2 Pan, 0.8 m
Radar Cross Section
0.155 m², Medium (>0.1 m² and < 1m²)

Expand to show TLE details & history
Last TLE update: 11 hours ago

TLE from 11 hours ago
0 TYVAK-0173
1 48892U 21059P   26095.19758317  .00003456  00000-0  44335-3 0  9991
2 48892  96.0075 189.7077 0007239 278.0493  81.9904 14.81640147257431
Epoch: 2026-04-05T04:44Z
TLE epoch observation values (Epoch: 2026-04-05T04:44:31.185Z)
Latitude
0.00003°
Longitude
-74.9287°
Altitude
626.523 km
Speed
7.546 km/s
True Right ascension
12h 38m 49s
True Declination
0° 00' 00"
Sunlit
Object was in full shadow at epoch
Visualization orbit readout
Latitude
Unknown
Longitude
Unknown
Altitude
Unknown
Speed
Unknown
Apparent Right ascension
Unknown
Apparent Declination
Unknown
Sunlit
N/A
Visualization observer readout
Local Sidereal Time
21:57:26
Azimuth
Unknown
Elevation
Unknown
Doppler factor
Unknown
Orbital elements
Apogee altitude
626.182 km
Perigee altitude
616.049 km
Semi-major axis
6,999.253 km
Eccentricity
0.00072
Inclination
96.0075°
RAAN
189.7077°
Arg. of periapsis
278.0493°
True anomaly
82.07255°
Mean anomaly
81.9904°
Eccentric anomaly
82.03148°
Mean motion
3.70651 °/min
Orbital period
97.13 mins
BSTAR
0.00044335
Loading maneuver chart data...
Computing Atmospheric mass density...

Documentation

Showing up to 5 results
|